Location: Boiro
(42.6475°N, 8.8834°W)
Time: 06:35:30
(UTC+01:00)

Vanguard 1 - Pass Details

Date: 03 December 2021
Orbit: 652 x 3830 km, 34.2° (Epoch: 21 January)

Event Time Altitude Azimuth Distance (km) Brightness Sun altitude
Rises 03:25:38 0° 254° (WSW) 7,709 - -57.6°
Reaches altitude 10° 03:30:41 10° 252° (WSW) 6,841 - -56.8°
Maximum altitude 03:53:59 67° 177° (S) 3,716 - -52.9°
Exits shadow 03:56:44 63° 146° (SE) 3,665 12.6 -52.5°
Drops below altitude 10° 04:11:03 10° 100° (E) 5,249 14.2 -50.0°
Sets 04:14:20 0° 98° (E) 5,917 14.6 -49.4°
